Probability
19 18 16 14 14 13 14 15 13 10 8 7 6 7 7 6 6 5 4 1 0 0 0 0 0 0 0 1 2 1 0 0 0 0 1 2 3 4
15 14 13 12 12 12 13 13 12 10 8 7 6 5 6 7 7 6 5 2 0 0 0 0 0 0 0 1 1 1 0 0 0 0 0 1 2 3
10 10 10 9 9 10 11 11 10 9 8 7 6 6 8 8 7 7 5 3 1 0 0 0 0 0 0 0 0 0 0 0 0 0 0 0 1 2
9 9 10 10 10 10 11 11 11 11 9 7 7 9 11 10 8 7 6 4 2 1 0 0 0 0 0 0 0 0 0 0 0 0 0 0 0 1
11 10 11 13 14 13 13 13 14 13 11 9 9 11 12 12 10 8 7 6 3 1 0 0 0 0 0 0 0 0 0 0 0 0 0 0 0 0
12 11 12 15 15 14 13 14 14 14 13 12 12 12 12 12 10 8 7 6 4 2 1 2 1 0 0 0 0 0 0 0 0 0 0 0 0 0
11 11 11 12 12 11 10 11 12 12 12 12 12 11 11 11 10 7 6 6 6 5 5 5 4 3 2 2 1 0 0 0 0 0 0 0 0 0
12 11 11 9 9 8 7 6 6 7 8 9 10 10 11 12 11 8 7 7 8 9 8 7 6 5 6 5 2 0 0 0 0 0 0 0 0 0
13 13 11 9 8 9 8 5 5 4 5 6 8 9 11 12 12 10 10 9 10 10 9 6 5 6 6 5 2 0 0 0 0 0 0 0 0 0
11 12 12 9 8 9 11 10 10 7 4 4 5 6 9 10 11 11 11 10 8 8 8 6 5 4 3 3 1 0 0 0 0 0 0 0 0 0
9 10 10 9 9 10 12 15 14 12 7 4 3 3 6 7 8 10 10 8 7 7 7 6 4 3 2 1 1 1 0 0 0 0 0 0 0 0
8 10 10 8 7 8 11 15 16 14 11 8 5 5 6 7 7 9 11 10 8 8 8 7 5 3 2 2 2 2 1 1 0 0 0 0 0 0
10 12 11 7 3 4 7 12 13 13 14 13 11 10 10 10 10 11 13 13 12 11 10 10 7 5 4 3 3 3 3 3 2 1 0 0 0 0
13 14 12 6 2 1 3 6 7 8 11 12 11 11 11 11 10 10 11 12 12 10 10 11 9 7 6 6 6 5 4 4 4 2 0 0 0 0
12 12 9 5 2 2 2 2 2 5 8 9 8 8 9 8 7 6 7 9 9 7 8 10 10 8 8 8 8 7 5 4 3 2 1 0 0 0
9 10 8 5 5 6 5 3 3 4 6 7 8 8 8 7 5 4 4 5 5 6 8 10 11 11 10 9 7 6 5 4 2 2 2 1 0 0
9 9 9 9 10 11 10 7 5 5 5 7 8 8 7 6 4 3 3 4 4 5 8 10 12 12 10 8 6 4 4 4 3 3 3 1 0 0
8 10 11 12 13 13 12 9 6 6 6 7 8 8 7 6 5 4 3 4 4 4 6 9 10 9 8 6 4 3 3 4 5 6 4 1 0 0
6 9 12 13 13 14 12 10 8 7 7 8 9 9 10 9 7 6 5 4 4 4 4 6 6 6 5 4 3 2 3 5 7 7 4 1 0 0
4 7 11 13 14 14 13 11 10 9 9 9 10 11 12 11 10 9 8 6 5 4 5 5 4 4 3 3 3 2 3 4 5 5 3 1 0 0
2 5 9 12 14 15 14 13 12 10 10 10 10 11 12 12 12 12 11 9 7 7 7 6 5 3 3 3 2 2 2 2 2 1 1 0 0 0
3 4 7 10 12 14 14 14 12 11 10 10 10 10 11 12 12 12 12 11 10 9 10 9 6 4 3 2 1 1 1 1 0 0 0 0 0 0
4 5 7 9 10 11 12 13 12 11 10 10 10 10 10 11 11 11 12 13 12 10 11 10 7 4 3 2 1 0 1 0 0 0 0 0 0 0
Wind_Speed
4 4 4 3 4 3 3 4 4 4 3 2 2 1 1 1 2 3 2 4 5 4 4 4 3 3 3 4 4 3 4 4 4 4 4 5 5 5
3 3 4 3 3 3 3 3 4 4 4 2 1 1 0 1 2 2 2 5 5 5 5 4 4 3 3 4 4 4 4 4 4 4 4 4 4 5
2 2 3 3 3 3 3 3 3 3 4 3 2 1 1 2 1 2 2 3 3 6 6 5 5 4 4 4 4 4 4 4 4 4 4 4 4 5
2 2 3 2 3 3 3 3 3 3 4 3 2 2 2 3 2 3 2 2 2 5 7 6 6 5 4 4 4 4 4 4 4 4 4 4 4 5
2 2 3 3 3 2 3 3 2 2 2 3 3 1 2 2 2 3 3 2 3 4 7 8 7 7 6 5 5 4 5 5 5 4 4 4 5 5
2 2 2 2 2 3 2 2 2 2 2 3 2 2 1 1 2 3 3 2 3 3 3 4 7 9 8 7 6 5 5 5 6 5 5 5 5 5
1 2 1 1 2 3 3 2 2 2 2 2 2 2 2 1 2 3 3 3 3 3 3 4 4 5 7 8 8 7 6 6 5 5 5 5 5 5
2 2 3 2 1 1 1 2 2 3 3 3 3 3 3 3 3 3 3 4 3 2 3 4 4 4 4 4 6 8 8 7 6 6 5 5 5 6
3 3 3 1 2 2 2 4 3 3 3 4 4 4 4 3 3 5 4 5 5 3 4 5 4 5 4 3 8 9 8 8 7 7 6 6 6 6
3 3 3 2 2 3 3 3 3 3 3 4 4 5 5 4 4 5 5 5 5 4 3 5 4 4 5 4 9 9 9 9 8 8 8 7 7 6
3 3 3 2 0 2 4 4 4 4 4 4 5 6 6 5 5 4 4 4 5 4 3 5 5 5 5 5 5 10 10 10 10 9 9 8 8 8
3 3 2 2 1 2 5 5 5 5 5 4 6 7 7 6 7 6 5 5 5 5 2 4 5 4 5 4 3 5 7 9 10 10 10 9 9 7
4 3 2 4 4 4 5 5 5 7 7 6 6 5 5 4 5 5 5 6 6 6 3 4 5 5 5 4 4 4 4 5 6 8 10 11 11 9
4 3 1 3 5 6 6 6 7 7 6 5 5 5 4 4 4 4 5 6 6 7 5 5 6 5 6 6 5 4 4 4 5 5 6 9 11 11
4 3 4 5 7 7 8 8 7 6 5 5 5 5 4 4 4 4 5 6 7 7 6 7 7 6 6 7 6 4 4 4 5 5 5 6 7 7
5 5 8 8 8 6 5 5 5 4 5 5 5 5 4 4 4 4 4 4 5 5 6 7 7 7 7 7 6 5 5 5 4 5 5 5 5 6
5 5 4 4 4 3 3 3 4 4 4 4 5 5 5 4 4 4 4 4 5 5 4 4 5 6 7 6 6 6 5 5 4 4 5 5 5 6
6 4 4 4 4 4 4 3 4 4 4 5 5 5 5 5 5 5 5 5 6 6 5 4 3 4 5 5 6 7 6 5 4 4 5 6 6 5
5 4 4 4 4 4 4 4 4 4 4 5 5 5 5 5 5 5 5 6 6 5 5 4 4 5 6 6 5 6 6 5 4 4 5 5 6 5
3 4 3 3 4 4 4 4 5 5 4 5 5 5 5 6 6 6 5 6 6 6 5 4 4 5 6 7 5 3 6 5 4 4 4 4 4 2
3 3 4 4 4 4 4 5 5 5 5 5 5 6 6 6 6 6 6 6 6 6 6 5 4 5 6 5 5 4 2 4 4 4 4 4 4 4
4 4 4 4 4 4 5 5 5 5 5 5 5 5 5 6 6 7 7 6 5 5 6 5 4 4 5 6 6 5 4 3 3 4 4 5 4 4
4 4 4 4 4 5 5 5 6 5 5 5 5 5 5 6 6 6 6 6 5 6 5 5 4 4 5 6 6 5 5 4 3 3 3 3 5 4
Wind_Direction
249 239 249 249 251 253 253 253 263 273 274 247 240 194 216 208 144 229 230 167 191 198 204 211 209 212 217 204 204 216 229 231 234 237 239 245 238 231
257 263 264 265 264 256 255 257 259 269 280 283 260 249 249 240 162 250 246 169 185 192 201 206 207 202 201 206 210 216 225 227 229 230 233 239 238 232
266 261 269 286 280 275 268 262 259 255 257 268 259 214 230 258 212 247 237 230 176 176 188 194 200 204 207 208 211 217 222 225 228 231 230 228 228 227
280 284 284 278 276 284 280 268 259 249 247 258 258 231 239 246 247 256 259 245 235 159 178 187 193 203 206 206 209 216 222 229 231 231 232 232 225 220
275 279 286 294 288 288 278 277 268 262 258 253 256 262 254 253 247 257 262 262 252 179 179 188 193 198 201 203 207 215 221 225 227 226 231 234 227 217
275 283 290 297 295 290 271 274 279 276 256 260 260 252 247 240 253 252 251 245 256 239 217 206 189 195 199 201 208 214 220 223 224 224 224 224 220 215
269 281 288 348 353 322 313 298 277 268 261 255 250 250 250 242 254 262 270 266 254 248 243 230 206 211 202 205 211 215 215 216 218 219 217 215 216 212
258 265 245 198 187 209 295 300 295 278 288 280 266 264 263 258 263 267 270 273 269 239 262 260 239 237 226 217 187 192 205 209 209 211 213 211 214 216
261 268 274 286 246 247 219 214 221 223 252 275 284 282 275 267 264 265 269 276 281 276 262 266 251 252 247 207 166 181 196 205 208 208 209 209 211 216
263 260 264 283 302 296 277 263 258 242 234 250 274 281 283 281 264 265 273 268 261 248 246 268 262 256 255 227 170 184 194 202 208 209 207 207 209 212
256 258 257 251 345 293 267 268 273 268 225 222 247 261 268 254 254 261 258 260 269 257 227 258 268 269 260 241 188 189 199 203 207 209 209 208 208 212
239 233 209 236 242 248 258 267 271 278 282 256 237 238 243 231 220 239 254 257 267 265 230 248 262 266 260 241 222 202 209 209 210 210 210 209 207 218
256 249 208 172 214 237 257 268 277 285 277 270 261 251 244 238 232 236 249 258 265 266 256 243 261 259 259 261 246 232 227 217 207 211 210 208 207 219
269 271 253 188 221 235 243 254 260 266 268 272 271 265 260 256 252 248 247 251 261 269 266 254 257 260 263 264 261 246 237 235 226 218 209 196 206 215
265 274 265 241 237 231 228 239 244 252 264 267 270 271 272 274 270 257 250 244 246 251 247 245 254 259 260 264 266 261 255 243 235 233 226 211 209 208
250 241 230 234 240 249 237 229 244 263 272 272 276 278 276 270 260 260 257 250 253 248 237 239 244 248 251 256 259 258 252 250 240 236 235 233 227 223
272 254 251 246 249 252 256 262 265 265 265 273 275 275 271 267 266 262 254 249 256 262 260 246 242 243 251 257 258 257 258 255 246 232 229 236 233 230
275 260 261 264 264 268 268 268 267 272 276 276 273 277 276 274 272 267 259 253 256 259 262 261 258 249 245 243 245 257 255 253 246 231 238 239 241 234
252 265 271 270 271 269 270 274 275 274 272 271 274 276 277 278 275 271 265 261 262 264 264 257 250 252 255 257 240 225 249 256 251 242 241 246 251 244
259 272 279 282 282 285 285 282 280 278 275 278 278 273 272 274 274 271 268 269 269 269 266 259 251 250 259 271 276 252 223 248 251 249 249 253 258 253
278 282 287 285 282 288 292 287 282 281 282 280 278 280 279 275 275 275 273 269 266 267 266 264 262 249 257 261 260 254 234 227 253 255 247 250 254 243
286 285 288 293 294 292 288 289 288 285 284 280 285 286 285 283 280 279 278 275 268 267 270 273 264 250 249 250 257 259 254 234 233 248 254 251 256 254
287 291 294 291 289 289 292 291 290 290 290 289 288 287 286 284 285 285 284 281 280 276 275 275 268 252 251 254 257 259 257 247 236 228 235 224 219 222